Showing default

SHIYAN 27C, 63601

Orbit data source: Space-Track

SHIYAN 27C, 63601 is a payload satellite owned by CAST (CN) in SSO that was launched on Fri, 18 Apr 2025 UTC via a CHANG ZHENG 6A launch vehicle from the Taiyaun Space Center, China (TSC). Payload-class satellites include a variety of spacecraft equipped with specific instruments for various scientific and technological missions. These include communications satellites like Starlink; space stations such as the ISS; scientific satellites like the Hubble; Earth observation satellites from companies like Planet Labs, Umbra, and HawkEye 360; GPS; miniature CubeSats for education and research; and military/defense satellites.

Loading next visibility...
Identifier
63601, 2025-078C
Orbit
SSO
Country
Flag of CNCN / PRC
Related business
Manufacturer
CAST
Mission
Operational Defense Radar Imaging
Bus & Motor
SW27, Unknown motor
Mass
300 kg wet, ~300 kg dry
Launch date (UTC)
2025-04-18 (7 months ago)
Launch vehicle
CHANG ZHENG 6A
Launch site
Taiyaun Space Center, China (TSC)
Object type
Payload
Rocket body
Debris
Shape & HBR
Box + 1 Pan, 1.9 m
Radar Cross Section
13.200 m², Large (>1 m²)

Expand to show TLE details & history
Last TLE update: 5 hours ago

TLE from 5 hours ago
0 SHIYAN 27C
1 63601U 25078C   25308.24919289  .00000033  00000-0  10826-3 0  9996
2 63601  99.6942 313.9103 0000676  95.1037 265.0179 13.57222929 27024
Epoch: 2025-11-04T05:58Z
TLE epoch observation values (Epoch: 2025-11-04T05:58:50.265Z)
Latitude
0.00002°
Longitude
-179.53807°
Altitude
1,048.641 km
Speed
7.328 km/s
True Right ascension
20h 55m 38s
True Declination
0° 00' 00"
Sunlit
Object was in daylight at epoch
Visualization orbit readout
Latitude
Unknown
Longitude
Unknown
Altitude
Unknown
Speed
Unknown
Apparent Right ascension
Unknown
Apparent Declination
Unknown
Sunlit
N/A
Visualization observer readout
Local Sidereal Time
06:26:04
Azimuth
Unknown
Elevation
Unknown
Doppler factor
Unknown
Orbital elements
Apogee altitude
1,043.595 km
Perigee altitude
1,042.592 km
Semi-major axis
7,421.23 km
Eccentricity
0.00007
Inclination
99.6942°
RAAN
313.9103°
Arg. of periapsis
95.1037°
True anomaly
265.01018°
Mean anomaly
265.0179°
Eccentric anomaly
265.01404°
Mean motion
3.39492 °/min
Orbital period
106.04 mins
BSTAR
0.00010826
Loading maneuver chart data...
Computing Atmospheric mass density...
Loading historical data...
Loading historical data...
Loading historical data...
Loading historical data...
Loading historical data...
Loading historical data...
Loading historical data...

Documentation

Showing up to 5 results
|